Home   Weather   Stonehaven   Past weeks
Flag for United Kingdom

Past Weather in Stonehaven, Scotland, United Kingdom — Yesterday and Last 2 Weeks

Currently: 43 °F. Quite cool. (Weather station: Aberdeen / Dyce, United Kingdom). See more current weather

Past Weather in Stonehaven — Graph

°F

Stonehaven Temperature Yesterday

Maximum temperature yesterday: 46 °F (at 12:50 pm)
Minimum temperature yesterday: 28 °F (at 2:20 am)
Average temperature yesterday: 37 °F

High & Low Weather Summary for the Past Weeks

 TemperatureHumidityPressure
High55 °F (Feb 18, 12:20 pm)100% (Feb 10, 6:50 am)30.24 "Hg (Feb 10, 6:50 am)
Low27 °F (Feb 14, 3:50 am)50% (Feb 20, 4:50 pm)28.71 "Hg (Feb 23, 2:50 am)
Average41 °F86%29.50 "Hg
* Reported Feb 9 12:20 pm — Feb 24 12:20 pm, Stonehaven. Weather by CustomWeather, © 2024

Note: Actual official high and low records may vary slightly from our data, if they occured in-between our weather recording intervals... More about our weather records

Stonehaven Weather History for the Previous 24 Hours

Scroll right to see more
 ConditionsComfort  
Time TempWeatherWind HumidityBarometerVisibility
12:20 pm
Sat, Feb 24
43 °FPassing clouds.5 mph71%29.33 "HgN/A
11:50 am45 °FQuite cool.5 mph66%29.30 "HgN/A
11:20 am43 °FQuite cool.2 mph71%29.30 "HgN/A
10:50 am41 °FQuite cool.1 mph70%29.30 "HgN/A
10:20 am39 °FChilly.2 mph75%29.30 "HgN/A
9:50 am36 °FChilly.1 mph81%29.30 "HgN/A
9:20 am34 °FChilly.1 mph87%29.30 "HgN/A
8:50 am34 °FChilly.1 mph87%29.27 "HgN/A
8:20 am30 °FChilly.1 mph86%29.27 "HgN/A
7:50 am27 °FChilly.2 mph93%29.27 "HgN/A
7:20 am27 °FChilly.2 mph93%29.24 "HgN/A
6:50 am27 °FChilly.1 mph93%29.24 "HgN/A
6:20 am27 °FChilly.2 mph93%29.21 "HgN/A
5:50 am28 °FChilly.2 mph86%29.21 "HgN/A
5:20 am28 °FChilly.2 mph86%29.21 "HgN/A
4:50 am27 °FChilly.1 mph93%29.18 "HgN/A
4:20 am27 °FChilly.1 mph93%29.18 "HgN/A
3:50 am28 °FChilly.3 mph93%29.15 "HgN/A
3:20 am28 °FChilly.2 mph86%29.15 "HgN/A
2:50 am32 °FChilly.2 mph93%29.15 "HgN/A
2:20 am28 °FChilly.3 mph93%29.15 "HgN/A
1:50 am30 °FChilly.2 mph86%29.12 "HgN/A
1:20 am30 °FChilly.2 mph86%29.12 "HgN/A
12:50 am30 °FChilly.2 mph86%29.12 "HgN/A
11:20 pm
Fri, Feb 23
32 °FChilly.2 mph87%29.09 "HgN/A
10:50 pm36 °FChilly.2 mph81%29.06 "HgN/A
10:20 pm34 °FChilly.5 mph81%29.06 "HgN/A
9:50 pm36 °FChilly.1 mph75%29.06 "HgN/A
9:20 pm37 °FChilly.2 mph75%29.03 "HgN/A
8:20 pm37 °FChilly.7 mph75%29.00 "HgN/A
7:50 pm37 °FChilly.10 mph75%29.00 "HgN/A
7:20 pm37 °FChilly.6 mph75%28.97 "HgN/A
6:50 pm36 °FChilly.6 mph81%28.97 "HgN/A
6:20 pm36 °FChilly.3 mph81%28.94 "HgN/A
5:50 pm39 °FChilly.3 mph70%28.94 "HgN/A
5:20 pm41 °FQuite cool.8 mph70%28.91 "HgN/A
4:50 pm43 °FQuite cool.7 mph66%28.91 "HgN/A
4:20 pm43 °FQuite cool.9 mph66%28.88 "HgN/A
3:50 pm45 °FQuite cool.9 mph61%28.88 "HgN/A
3:20 pm46 °FCool.8 mph57%28.85 "HgN/A
2:50 pm46 °FCool.12 mph53%28.85 "HgN/A
2:20 pm46 °FPassing clouds.12 mph62%28.85 "HgN/A
1:50 pm46 °FCool.7 mph62%28.82 "HgN/A
1:20 pm46 °FCool.10 mph62%28.82 "HgN/A
Weather by CustomWeather, © 2024

See weather overview